Location: Mizzole
(45.4833°N, 11.0500°E)
Time: 20:09:56
(UTC+00:00)

COBE Rocket - Pass Details

Date: 21 October 2019
Orbit: 680 x 782 km, 97.1° (Epoch: 11 November)

Event Time Altitude Azimuth Distance (km) Brightness Sun altitude
Rises 17:12:58 0° 12° (NNE) 3,272 7.1 -9.8°
Reaches altitude 10° 17:15:19 10° 12° (NNE) 2,332 6.3 -10.2°
Maximum altitude 17:20:30 87° 102° (ESE) 772 4.0 -11.2°
Drops below altitude 10° 17:25:31 10° 192° (SSW) 2,264 6.6 -12.0°
Sets 17:27:46 0° 193° (SSW) 3,169 7.4 -12.4°
